Vertical_Velocity
-0 -1 -0 2 1 1 -0 -2 -2 -1 2 2 1 2 2 4 1 10 -10 15 21 -1 -23 -6 3 1 2 1 2 -2 -2 3 2 3 2 -3 2 -5 -1 -4 -7 -8 -5 -1 3 4 -11 -3 -0 -1 -13 0 -1 0
0 2 1 0 0 -1 -0 -0 -1 -3 -1 -1 0 -2 1 2 3 10 -1 1 10 35 -20 -2 -5 4 -7 -11 3 7 -8 -2 -7 1 2 1 1 2 -3 -4 -3 -5 -12 -10 -10 -16 0 -4 1 0 -0 -2 -2 -1
-2 2 1 -2 -3 -3 -3 1 -1 1 1 -1 -1 -1 0 -0 2 12 0 5 10 22 1 15 -3 -4 2 -1 19 11 3 -4 -0 -3 -2 -3 0 -1 -2 -6 1 -1 -0 -0 -0 -2 -1 -3 -0 1 0 -1 -1 -1
-3 0 -1 1 4 3 2 -3 -1 -0 1 2 -1 1 -2 2 1 3 1 10 11 11 4 -9 -3 1 3 -1 6 10 4 14 9 6 -0 -1 -0 -0 -1 -3 -1 -4 -0 -3 -4 1 -1 -4 -0 -1 -0 0 -2 0
2 2 2 2 -4 -5 -1 -10 1 -1 -4 -2 3 2 2 3 0 1 -5 -10 3 11 2 0 -2 -4 -6 1 2 5 7 7 3 2 1 -1 0 1 0 0 0 -2 -4 -3 -4 1 0 1 3 -0 -1 -1 0 -1
3 3 3 4 2 3 -4 -2 4 8 4 5 8 1 -6 -0 10 9 2 -10 8 13 18 4 -0 0 4 1 1 5 8 6 1 -1 -0 0 -1 -0 0 -0 1 1 -0 -1 0 -1 -1 0 -1 2 -0 0 0 -0
-0 1 -0 1 1 -0 0 3 2 2 7 6 7 4 5 5 19 17 -13 16 14 20 16 4 1 1 1 4 -0 -1 1 1 0 -1 0 -1 0 -1 1 -0 1 0 1 0 -0 -0 -1 1 -1 1 2 1 0 0
-3 -2 1 2 1 2 -0 1 -1 -6 -0 2 -1 -1 3 8 11 -8 -15 -11 24 17 9 2 -0 1 -7 -1 -2 -4 -2 -0 -2 1 -0 -0 1 -0 1 0 1 1 0 0 -0 -1 -1 -0 0 1 1 0 -0 -0
0 1 -1 2 3 2 2 -2 -3 -2 0 -1 -1 4 -11 3 2 -21 -2 1 5 1 1 -0 -2 -4 1 -0 -0 -0 -2 -1 0 -1 0 2 -0 -2 -3 -1 -1 -2 -2 -3 -0 0 0 0 -0 -0 -0 -1 -0 0
0 2 -1 0 1 -0 2 2 -2 -2 -1 2 8 2 2 1 3 -3 -1 12 15 9 9 -0 1 -4 2 0 2 -2 0 -1 0 -2 -1 -1 -3 -0 -0 1 2 -1 -1 -1 -3 -0 -1 -1 -1 -0 -1 -1 -1 -0
3 -0 0 1 1 -1 0 2 4 5 10 2 -0 -2 -4 1 -0 2 -0 2 0 1 -0 2 -0 -1 -3 -1 -1 -1 -1 1 1 1 1 -0 -3 -0 -0 -0 1 -1 -0 -1 -1 -1 -1 -1 -1 -1 -1 -1 -1 -1
-0 1 2 0 0 -0 5 0 -1 16 -0 -3 11 13 2 5 2 -1 -0 -2 -2 -1 -1 -1 0 -1 -1 0 -4 1 -1 -0 0 0 -1 -0 -4 -1 1 -0 -0 -0 -0 -1 -1 -1 -0 -1 -1 -1 -1 -2 -1 -0
-1 0 0 1 2 -2 -2 -0 1 16 14 4 9 4 1 1 -3 1 -2 -5 -1 -1 0 0 -2 -1 0 -0 -1 -1 -1 1 1 -0 -2 -4 -0 1 -1 -1 -1 0 -1 -0 -1 -1 -1 -2 -1 0 0 -1 -1 -0
6 -3 1 6 5 2 -0 2 4 8 19 0 -2 -1 -5 1 1 1 1 1 0 -0 0 -1 -0 -0 0 -2 0 -4 2 -0 -0 -0 -5 -2 -2 -1 -1 -0 -0 -2 0 -1 -1 -2 -1 -1 -0 0 0 -1 -1 -1
1 6 7 6 8 -0 4 -2 0 8 5 -2 -3 1 -1 0 0 -1 0 -0 0 1 1 1 -0 -3 0 -2 -1 0 1 -0 -2 -5 -2 -0 -0 -1 -2 -3 -1 -0 -1 -1 -1 0 0 -0 -0 0 -1 -1 -2 -1
7 3 6 2 -3 -1 2 1 -4 -3 -5 -4 -7 -3 -1 -1 -1 -1 -0 0 1 1 1 0 -0 -1 1 -1 1 -1 -1 -3 -3 -1 -0 -0 -1 -1 -0 0 0 -0 -1 -1 -0 0 -0 -1 -0 -1 -1 -1 -1 -2
-4 -1 -2 -5 -4 -1 2 -1 -1 -10 -3 -4 -2 2 1 1 1 0 2 -0 -0 1 0 0 -1 1 0 -0 -0 -1 -2 -2 -0 0 1 0 1 -0 -1 -2 -2 -0 0 -1 -1 -0 0 -1 -1 -1 -1 -2 -1 -1
-3 23 6 1 1 4 -12 -9 -6 -5 -2 -0 -3 0 0 1 1 1 1 -1 -0 1 -0 1 -2 1 -1 -0 -2 -2 -0 -0 0 0 0 -0 -1 -2 -1 -0 -0 0 -0 -0 -1 -1 -1 -1 -1 -1 -2 -1 -1 -1
2 1 2 -1 0 -4 -5 -4 -2 -3 1 -0 0 -0 -0 -0 2 3 3 0 0 0 0 -0 -2 -0 -1 -0 -1 -1 -1 -1 -2 -1 -1 -1 -1 -0 0 -1 -2 -1 0 -1 -2 -1 -1 -1 -1 -1 -1 -1 -1 -1
-2 -2 -5 -5 2 -7 -5 -3 1 -4 -0 -0 -1 -1 0 -0 0 -1 -1 -1 -1 -0 -3 -2 -1 -1 -0 -0 0 0 0 0 -0 -1 -1 -0 -1 -1 -1 -0 0 -0 -1 -1 -1 -2 -1 -1 -0 -1 -2 -2 -1 -1
-1 -5 -2 1 -14 -8 -5 1 -2 -0 -0 -0 0 -0 -0 -0 -1 -3 -2 -1 0 -0 -1 0 0 0 0 0 0 0 0 1 1 1 -0 -1 -1 -0 -1 -1 -1 -1 -1 -1 -2 -1 3 -2 -1 -1 -1 -1 -1 -3
-1 2 -1 -6 -8 -2 -6 -1 -1 -1 -1 -0 -0 1 -1 -2 -1 -0 -2 0 -0 0 0 0 0 -0 -0 -0 -0 -0 -0 -0 -1 -1 -1 -1 -3 -3 -3 -1 -1 -2 -2 -1 -0 -1 -1 -1 0 -1 -1 -0 0 -2
-4 -5 -6 -1 -6 -6 0 1 -2 -1 -4 -3 -2 -3 -2 -2 0 0 -2 0 -0 0 0 -0 0 0 0 0 -0 -1 -1 -0 -0 0 0 0 -1 -1 -2 -2 -1 -1 -2 -1 -1 -1 -1 0 -2 4 -1 -1 -2 -2
-3 -11 -7 -5 -1 -1 1 -3 0 -2 -1 -3 -2 -2 -3 -1 -3 -4 -1 -1 1 2 2 2 1 0 0 -0 -1 0 0 -0 -1 -1 -0 -0 -0 -0 -0 0 -0 0 -0 0 -1 -0 -0 -1 1 -1 -0 -1 -2 -1
-18 -8 -4 -4 1 -6 -4 -3 -2 -5 -0 -0 -2 -2 -2 -1 -2 -1 0 -4 -4 -1 0 1 2 2 1 1 1 1 1 1 1 1 3 0 1 1 -0 0 -0 0 1 -1 -1 -0 0 1 -0 -1 -0 -1 -2 -1
-11 -1 -6 2 -2 -5 -0 -1 -0 -0 0 -1 -1 -1 -0 -2 -4 -1 -1 2 0 -0 1 2 1 -1 1 4 -0 2 1 1 1 -1 3 1 2 2 2 1 0 0 0 0 0 -1 0 1 0 0 -0 0 -0 7
-5 -5 -1 0 1 2 -2 -1 1 -2 -0 -0 -1 -2 -2 -3 -0 -4 3 2 3 6 5 4 3 3 2 2 3 2 2 3 3 1 0 0 0 1 1 -0 -1 4 2 0 0 0 1 1 -0 -1 -0 0 -0 -1
-0 -0 -3 -2 -1 -0 -2 -0 -0 -0 -1 1 2 -2 -1 -2 -3 0 -1 1 5 4 3 3 2 3 2 3 3 2 1 1 1 1 -0 1 2 1 1 0 1 4 -1 1 1 0 -1 -0 -1 -1 -1 -1 -0 -0
-0 0 1 -2 -0 -0 -0 -1 -1 0 -0 0 -1 -1 -2 2 0 0 3 4 3 -0 -2 -2 1 2 2 1 1 2 1 -0 -0 -0 0 -0 0 1 1 1 2 3 1 0 3 -0 0 -1 -1 -1 -0 -1 1 -0
-1 1 1 0 -0 -1 0 -0 -0 0 1 1 0 -0 0 1 2 4 5 1 -4 -3 0 -0 0 -0 -1 -1 -1 1 1 2 4 3 0 0 2 1 2 1 0 1 1 0 2 1 3 20 5 9 2 -1 -1 -1
0 1 1 0 -1 1 -0 0 0 -0 0 0 1 1 1 1 2 3 0 3 3 1 2 0 3 0 0 -0 -1 -2 -0 2 2 3 3 0 1 1 0 0 0 -0 0 1 1 1 2 1 -1 2 2 0 3 1
1 0 0 -1 -2 1 1 1 0 0 -0 -1 1 0 1 1 1 3 -1 -3 0 -9 1 2 -2 -2 1 2 4 6 5 4 3 2 0 -1 2 2 -2 -0 1 1 0 0 1 1 1 1 -0 -1 -0 0 1 2
0 1 1 -0 -1 0 0 -1 1 -1 0 0 1 0 1 -0 1 0 6 2 2 2 -3 1 2 2 3 2 0 2 3 2 1 2 4 6 14 31 5 -0 1 3 3 2 2 1 1 1 0 1 2 2 2 2
Height
1431 1429 1428 1426 1425 1424 1422 1421 1421 1421 1420 1419 1419 1420 1420 1420 1421 1422 1416 1416 1412 1404 1397 1401 1403 1407 1409 1409 1408 1409 1413 1412 1416 1415 1411 1406 1402 1404 1410 1406 1412 1407 1415 1414 1410 1406 1393 1389 1402 1393 1376 1376 1378 1380
1422 1420 1419 1417 1415 1414 1413 1411 1411 1411 1410 1409 1408 1407 1409 1409 1409 1411 1406 1406 1403 1397 1387 1386 1386 1389 1392 1392 1397 1396 1394 1395 1396 1401 1401 1398 1395 1401 1403 1390 1402 1394 1381 1388 1387 1372 1373 1376 1371 1371 1372 1374 1378 1381
1412 1411 1409 1407 1406 1404 1404 1402 1401 1401 1400 1399 1399 1399 1398 1399 1399 1400 1396 1396 1395 1388 1381 1378 1371 1375 1381 1382 1386 1384 1382 1384 1383 1382 1382 1382 1385 1384 1385 1382 1382 1378 1375 1377 1376 1366 1369 1370 1371 1372 1374 1376 1378 1382
1404 1402 1400 1398 1397 1396 1394 1393 1392 1391 1391 1390 1390 1390 1389 1389 1389 1389 1388 1387 1388 1384 1374 1365 1364 1367 1364 1367 1371 1371 1370 1372 1373 1374 1375 1375 1374 1370 1367 1364 1365 1367 1370 1368 1365 1367 1369 1369 1369 1371 1374 1377 1379 1383
1394 1392 1391 1389 1388 1387 1385 1384 1383 1382 1382 1381 1380 1380 1380 1380 1380 1379 1378 1375 1376 1379 1366 1361 1357 1357 1358 1361 1359 1360 1361 1364 1365 1368 1366 1366 1365 1367 1369 1368 1363 1361 1358 1360 1351 1363 1363 1366 1365 1369 1373 1376 1379 1382
1384 1382 1380 1380 1378 1376 1376 1376 1373 1372 1371 1371 1371 1371 1372 1371 1372 1371 1366 1361 1360 1362 1364 1358 1349 1348 1348 1348 1352 1354 1355 1355 1358 1358 1358 1360 1361 1364 1361 1357 1360 1359 1360 1360 1361 1363 1364 1366 1367 1370 1372 1376 1378 1381
1374 1372 1371 1370 1368 1368 1367 1366 1364 1362 1362 1362 1361 1361 1361 1361 1362 1361 1356 1353 1352 1354 1347 1337 1340 1343 1347 1346 1347 1351 1352 1352 1354 1356 1357 1358 1361 1360 1359 1358 1361 1360 1361 1361 1362 1364 1366 1367 1369 1371 1373 1376 1378 1380
1365 1363 1362 1360 1359 1358 1358 1358 1357 1356 1354 1353 1353 1352 1351 1351 1349 1347 1343 1348 1351 1349 1346 1336 1342 1344 1344 1347 1349 1351 1353 1355 1356 1358 1360 1358 1360 1360 1356 1356 1357 1359 1361 1362 1363 1364 1364 1365 1368 1371 1373 1376 1378 1379
1355 1353 1351 1349 1348 1348 1348 1349 1350 1349 1348 1347 1345 1344 1342 1341 1339 1334 1335 1337 1339 1344 1334 1330 1330 1335 1343 1344 1347 1348 1350 1357 1359 1359 1362 1364 1361 1353 1349 1351 1354 1358 1359 1362 1364 1366 1366 1367 1369 1371 1373 1375 1376 1377
1345 1343 1340 1338 1338 1339 1339 1340 1341 1341 1341 1340 1339 1338 1333 1329 1329 1331 1328 1326 1326 1323 1324 1325 1330 1340 1340 1340 1346 1350 1349 1356 1353 1365 1363 1366 1357 1351 1351 1352 1354 1357 1359 1361 1364 1366 1367 1368 1370 1371 1372 1373 1374 1375
1335 1332 1330 1329 1329 1330 1330 1331 1333 1334 1335 1334 1331 1328 1326 1325 1327 1326 1325 1324 1323 1323 1326 1330 1330 1336 1339 1339 1341 1346 1346 1353 1351 1361 1361 1361 1356 1349 1350 1353 1354 1357 1360 1362 1364 1365 1366 1368 1369 1371 1372 1373 1373 1373
1325 1322 1322 1322 1322 1322 1323 1325 1326 1328 1327 1328 1328 1321 1322 1323 1324 1326 1325 1327 1328 1326 1333 1333 1334 1335 1336 1336 1338 1345 1347 1349 1348 1361 1359 1351 1347 1347 1349 1351 1354 1357 1360 1362 1364 1365 1366 1367 1369 1371 1371 1371 1371 1371
1314 1315 1316 1316 1316 1316 1317 1318 1320 1321 1322 1321 1321 1319 1318 1322 1326 1323 1337 1334 1334 1333 1332 1334 1336 1336 1337 1338 1340 1343 1346 1353 1361 1359 1350 1345 1345 1345 1349 1351 1354 1357 1360 1362 1364 1365 1366 1368 1369 1369 1369 1369 1369 1369
1314 1313 1312 1312 1312 1312 1312 1312 1313 1315 1315 1314 1313 1319 1321 1323 1328 1335 1336 1334 1334 1331 1333 1334 1337 1338 1338 1340 1343 1344 1359 1357 1360 1360 1347 1340 1341 1345 1348 1352 1355 1357 1360 1362 1364 1365 1367 1367 1366 1366 1367 1366 1366 1366
1312 1310 1309 1308 1307 1306 1307 1306 1305 1308 1308 1310 1314 1326 1335 1339 1337 1337 1336 1336 1335 1335 1334 1335 1336 1338 1340 1343 1348 1355 1358 1353 1352 1343 1342 1339 1342 1345 1348 1351 1354 1357 1359 1361 1363 1364 1364 1364 1364 1364 1364 1364 1364 1363
1310 1307 1306 1306 1307 1307 1306 1306 1307 1308 1314 1323 1333 1339 1340 1339 1340 1339 1338 1337 1336 1337 1336 1336 1336 1338 1344 1344 1347 1342 1339 1337 1337 1341 1340 1341 1343 1346 1348 1351 1354 1357 1359 1361 1362 1362 1362 1362 1362 1362 1362 1362 1361 1361
1309 1309 1310 1309 1308 1306 1304 1306 1310 1318 1330 1338 1346 1346 1346 1346 1344 1342 1341 1340 1340 1340 1338 1337 1337 1343 1347 1346 1344 1344 1340 1340 1340 1340 1341 1343 1345 1347 1349 1351 1353 1356 1358 1359 1359 1359 1360 1360 1360 1360 1360 1360 1360 1360
1311 1312 1311 1311 1310 1309 1307 1312 1322 1336 1346 1351 1351 1351 1349 1348 1346 1345 1343 1343 1342 1340 1339 1340 1341 1343 1340 1340 1340 1341 1341 1341 1342 1342 1343 1345 1346 1347 1349 1351 1353 1354 1355 1356 1356 1357 1358 1359 1359 1359 1358 1358 1358 1358
1314 1314 1313 1312 1310 1310 1317 1328 1334 1346 1354 1354 1354 1353 1351 1350 1349 1348 1346 1344 1343 1342 1342 1342 1343 1345 1344 1343 1342 1340 1340 1341 1342 1343 1344 1345 1346 1348 1349 1350 1351 1352 1353 1354 1355 1356 1356 1357 1357 1357 1357 1357 1357 1357
1319 1318 1315 1311 1311 1314 1328 1340 1344 1349 1356 1358 1356 1355 1354 1353 1351 1349 1347 1346 1344 1343 1344 1347 1348 1345 1344 1342 1341 1341 1340 1341 1341 1342 1343 1344 1346 1347 1348 1349 1350 1351 1352 1353 1353 1354 1354 1355 1355 1355 1355 1356 1356 1356
1322 1320 1318 1317 1314 1323 1339 1349 1353 1357 1358 1359 1358 1357 1356 1354 1352 1350 1349 1346 1345 1346 1348 1347 1346 1345 1345 1344 1343 1342 1342 1342 1342 1343 1343 1342 1344 1345 1346 1347 1348 1349 1350 1350 1351 1352 1353 1352 1353 1353 1354 1354 1354 1354
1325 1324 1323 1325 1330 1339 1350 1357 1360 1361 1361 1360 1359 1358 1357 1357 1356 1354 1352 1349 1350 1351 1350 1348 1347 1347 1346 1345 1344 1343 1343 1343 1343 1343 1342 1342 1342 1343 1344 1345 1346 1347 1347 1348 1349 1349 1349 1350 1350 1351 1351 1351 1352 1352
1331 1330 1332 1338 1342 1352 1365 1363 1362 1364 1365 1364 1361 1362 1363 1361 1359 1357 1355 1355 1355 1353 1352 1350 1348 1347 1346 1345 1344 1343 1343 1342 1342 1342 1342 1341 1341 1342 1342 1342 1343 1344 1344 1345 1346 1346 1346 1346 1347 1349 1348 1349 1348 1349
1338 1340 1348 1354 1361 1369 1369 1369 1369 1368 1368 1371 1375 1374 1371 1367 1362 1360 1365 1360 1360 1356 1353 1351 1349 1347 1346 1344 1343 1342 1341 1341 1340 1340 1339 1339 1339 1339 1339 1339 1339 1340 1341 1342 1341 1342 1342 1343 1344 1344 1345 1345 1345 1345
1350 1369 1371 1378 1378 1377 1382 1382 1381 1379 1387 1386 1382 1379 1376 1374 1374 1374 1375 1367 1363 1359 1356 1352 1349 1347 1344 1342 1341 1341 1339 1338 1337 1337 1337 1336 1336 1336 1336 1335 1335 1336 1336 1336 1336 1337 1338 1339 1340 1340 1341 1341 1341 1341
1382 1392 1393 1394 1393 1391 1394 1394 1395 1396 1394 1391 1388 1383 1381 1381 1379 1382 1378 1373 1368 1362 1357 1353 1348 1344 1342 1341 1339 1338 1337 1336 1335 1333 1334 1333 1333 1332 1331 1331 1331 1331 1331 1332 1332 1332 1333 1334 1335 1336 1337 1338 1339 1339
1404 1406 1402 1401 1399 1399 1397 1397 1397 1396 1400 1399 1394 1389 1388 1386 1390 1383 1380 1376 1370 1362 1355 1350 1346 1342 1339 1338 1337 1336 1334 1333 1332 1332 1331 1330 1329 1328 1327 1326 1326 1327 1327 1327 1327 1328 1329 1330 1330 1331 1333 1334 1335 1335
1409 1408 1410 1405 1401 1401 1402 1402 1403 1404 1400 1397 1396 1394 1391 1392 1393 1388 1385 1378 1368 1359 1353 1348 1344 1340 1337 1335 1334 1333 1332 1331 1329 1328 1327 1326 1324 1323 1322 1321 1321 1321 1321 1322 1322 1323 1324 1325 1326 1328 1329 1330 1332 1332
1413 1412 1409 1405 1403 1402 1402 1403 1403 1402 1401 1398 1398 1395 1390 1390 1390 1387 1383 1376 1367 1360 1351 1345 1341 1338 1335 1334 1332 1331 1330 1328 1327 1325 1323 1322 1321 1320 1318 1317 1316 1316 1315 1316 1317 1318 1320 1321 1322 1324 1325 1327 1328 1329
1417 1414 1410 1408 1407 1406 1405 1404 1402 1401 1399 1398 1396 1393 1391 1390 1389 1387 1382 1375 1366 1360 1354 1349 1343 1339 1335 1332 1331 1330 1329 1327 1326 1325 1322 1320 1318 1317 1315 1314 1313 1312 1311 1311 1312 1314 1317 1320 1320 1322 1321 1322 1323 1324
1419 1415 1412 1410 1407 1405 1404 1402 1400 1399 1399 1398 1396 1393 1391 1389 1389 1387 1383 1377 1370 1363 1356 1351 1347 1342 1338 1335 1332 1330 1329 1327 1325 1323 1320 1318 1316 1313 1311 1310 1309 1308 1307 1307 1308 1308 1310 1312 1314 1315 1317 1318 1319 1320
1421 1418 1417 1413 1406 1405 1403 1401 1399 1398 1397 1397 1397 1394 1392 1389 1389 1389 1385 1379 1372 1365 1360 1355 1350 1346 1343 1340 1338 1335 1332 1328 1325 1321 1319 1316 1314 1312 1310 1308 1307 1306 1305 1304 1304 1304 1305 1307 1308 1310 1312 1313 1314 1315
1422 1420 1417 1415 1409 1405 1404 1402 1400 1398 1397 1396 1396 1396 1394 1393 1393 1394 1390 1384 1378 1371 1365 1360 1355 1351 1347 1343 1340 1336 1332 1328 1324 1321 1319 1317 1315 1311 1305 1304 1303 1302 1301 1301 1301 1301 1302 1303 1304 1306 1307 1308 1309 1310